Deelen, Netherlands

8:05 AM CEST on April 26, 2018 (GMT +0200)
Deelen Air Base

Weather History for EHDL - December, 2012

Change the Weather History Date:

Sunday, December 30, 2012

  Actual Average Record
Temperature  
Mean Temperature 44 °F -  
Max Temperature 48 °F 40 °F 52 °F (2017)
Min Temperature 41 °F 32 °F 15 °F (2010)
Degree Days  
Heating Degree Days 20    
Moisture  
Dew Point 41 °F    
Average Humidity 84    
Maximum Humidity 93    
Minimum Humidity 76    
Precipitation  
Precipitation 0.00 in - - ()
Sea Level Pressure  
Sea Level Pressure 29.83 in    
Wind  
Wind Speed 15 mph ()    
Max Wind Speed 22 mph    
Max Gust Speed 34 mph    
Visibility 6.2 miles    
Events Rain    
Averages and records for this station are not official NWS values.
T = Trace of Precipitation, MM = Missing Value Source: Averaged Metar Reports

Daily Weather History Graph

Daily Weather History Graph

Search for Another Location

Airport or City:

Astronomy

Dec. 30, 2012 Rise Set
Actual Time 8:45 AM CET 4:33 PM CET
Civil Twilight 8:04 AM CET 5:14 PM CET
Nautical Twilight 7:20 AM CET 5:57 PM CET
Astronomical Twilight 6:39 AM CET 6:39 PM CET
Moon 7:08 PM CET (12/30) 9:28 AM CET (12/30)
Length of Visible Light 9h 09m
Length of Day
7h 48m
Waning Gibbous, 96% of the Moon is Illuminated
Dec 30
Waning Gibbous
Jan 5
Last Quarter
Jan 11
New
Jan 19
First Quarter
Jan 27
Full

Hourly Weather History & Observations

Time (CET) Temp. Windchill Dew Point Humidity Pressure Visibility Wind Dir Wind Speed Gust Speed Precip Events Conditions
12:25 AM 46.4 °F 40.7 °F 44.6 °F 93% 29.74 in 6.2 mi SSW 12.7 mph - N/A   Light Drizzle
12:55 AM 46.4 °F 41.1 °F 44.6 °F 93% 29.74 in 6.2 mi SW 11.5 mph - N/A   Mostly Cloudy
1:25 AM 48.2 °F - 44.6 °F 87% 29.74 in 6.2 mi SSW 12.7 mph - N/A   Mostly Cloudy
1:55 AM 48.2 °F - 44.6 °F 87% 29.74 in 6.2 mi SSW 12.7 mph - N/A   Overcast
2:25 AM 48.2 °F - 44.6 °F 87% 29.74 in 6.2 mi SSW 15.0 mph - N/A   Overcast
2:55 AM 46.4 °F 40.1 °F 42.8 °F 87% 29.74 in 6.2 mi SSW 15.0 mph - N/A   Mostly Cloudy
3:25 AM 46.4 °F 39.8 °F 42.8 °F 87% 29.74 in 6.2 mi SSW 16.1 mph - N/A   Mostly Cloudy
3:55 AM 46.4 °F 39.8 °F 41.0 °F 81% 29.74 in 6.2 mi SSW 16.1 mph - N/A   Overcast
4:25 AM 46.4 °F 40.1 °F 41.0 °F 81% 29.74 in 6.2 mi SSW 15.0 mph - N/A   Mostly Cloudy
4:55 AM 46.4 °F 39.5 °F 41.0 °F 81% 29.74 in 6.2 mi SSW 17.3 mph - N/A   Mostly Cloudy
5:25 AM 46.4 °F 39.2 °F 41.0 °F 81% 29.74 in 6.2 mi SSW 18.4 mph 29.9 mph N/A   Overcast
5:55 AM 42.8 °F 34.3 °F 39.2 °F 87% 29.74 in 6.2 mi SW 19.6 mph 31.1 mph N/A   Mostly Cloudy
6:25 AM 42.8 °F 35.1 °F 39.2 °F 87% 29.74 in 6.2 mi SW 16.1 mph - N/A   Mostly Cloudy
6:55 AM 42.8 °F 34.8 °F 39.2 °F 87% 29.74 in 6.2 mi SW 17.3 mph - N/A   Mostly Cloudy
7:25 AM 42.8 °F 34.8 °F 39.2 °F 87% 29.77 in 6.2 mi SW 17.3 mph - N/A   Overcast
7:55 AM 41.0 °F 32.5 °F 37.4 °F 87% 29.77 in 6.2 mi SW 17.3 mph - N/A   Scattered Clouds
8:25 AM 41.0 °F 32.2 °F 37.4 °F 87% 29.77 in 6.2 mi SW 18.4 mph - N/A   Unknown
8:55 AM 41.0 °F 32.5 °F 37.4 °F 87% 29.77 in 6.2 mi SW 17.3 mph 28.8 mph N/A   Unknown
9:25 AM 41.0 °F 32.2 °F 37.4 °F 87% 29.80 in 6.2 mi SW 18.4 mph - N/A   Unknown
9:55 AM 42.8 °F 34.0 °F 37.4 °F 81% 29.80 in 6.2 mi SSW 20.7 mph - N/A   Scattered Clouds
10:25 AM 41.0 °F 31.6 °F 37.4 °F 87% 29.83 in 6.2 mi SW 20.7 mph - N/A   Mostly Cloudy
10:55 AM 42.8 °F 35.1 °F 37.4 °F 81% 29.83 in 6.2 mi SSW 16.1 mph - N/A   Mostly Cloudy
11:25 AM 42.8 °F 34.3 °F 39.2 °F 87% 29.83 in 6.2 mi SW 19.6 mph - N/A   Partly Cloudy
11:55 AM 44.6 °F 36.4 °F 39.2 °F 81% 29.83 in 6.2 mi SW 20.7 mph - N/A   Mostly Cloudy
12:25 PM 44.6 °F 36.4 °F 39.2 °F 81% 29.83 in 6.2 mi SW 20.7 mph - N/A   Mostly Cloudy
12:55 PM 44.6 °F 36.1 °F 39.2 °F 81% 29.83 in 6.2 mi SW 21.9 mph 34.5 mph N/A   Overcast
1:25 PM 44.6 °F 36.9 °F 39.2 °F 81% 29.86 in 6.2 mi SW 18.4 mph - N/A   Mostly Cloudy
1:55 PM 46.4 °F 38.7 °F 39.2 °F 76% 29.86 in 6.2 mi SW 20.7 mph - N/A   Mostly Cloudy
2:25 PM 46.4 °F 39.0 °F 39.2 °F 76% 29.86 in 6.2 mi SW 19.6 mph - N/A   Mostly Cloudy
2:55 PM 46.4 °F 38.5 °F 39.2 °F 76% 29.86 in 6.2 mi SW 21.9 mph - N/A   Mostly Cloudy
3:25 PM 46.4 °F 38.5 °F 39.2 °F 76% 29.86 in 6.2 mi SW 21.9 mph - N/A   Mostly Cloudy
3:55 PM 46.4 °F 39.0 °F 39.2 °F 76% 29.86 in 6.2 mi SW 19.6 mph 31.1 mph N/A   Overcast
4:25 PM 44.6 °F 37.2 °F 39.2 °F 81% 29.89 in 6.2 mi SSW 17.3 mph - N/A   Mostly Cloudy
4:55 PM 46.4 °F 39.0 °F 39.2 °F 76% 29.89 in 6.2 mi SW 19.6 mph - N/A   Overcast
5:25 PM 44.6 °F 36.9 °F 39.2 °F 81% 29.89 in 6.2 mi SW 18.4 mph - N/A Rain Light Rain
5:55 PM 44.6 °F 37.2 °F 41.0 °F 87% 29.89 in 6.2 mi SW 17.3 mph - N/A Rain Light Rain
6:25 PM 44.6 °F 36.6 °F 41.0 °F 87% 29.89 in 6.2 mi SW 19.6 mph - N/A   Heavy Drizzle
6:55 PM 44.6 °F 37.2 °F 41.0 °F 87% 29.89 in 6.2 mi SW 17.3 mph - N/A   Scattered Clouds
7:25 PM 44.6 °F 37.4 °F 41.0 °F 87% 29.89 in 6.2 mi SW 16.1 mph - N/A   Overcast
7:55 PM 46.4 °F 39.5 °F 41.0 °F 81% 29.92 in 6.2 mi SW 17.3 mph - N/A   Overcast
8:25 PM 46.4 °F 39.0 °F 41.0 °F 81% 29.92 in 6.2 mi SW 19.6 mph - N/A   Overcast
8:55 PM 46.4 °F 39.2 °F 42.8 °F 87% 29.92 in 6.2 mi SW 18.4 mph - N/A   Overcast
9:25 PM 46.4 °F 39.0 °F 42.8 °F 87% 29.92 in 6.2 mi SW 19.6 mph - N/A   Overcast
9:55 PM 46.4 °F 39.2 °F 42.8 °F 87% 29.92 in 6.2 mi SW 18.4 mph 29.9 mph N/A   Overcast
10:25 PM 46.4 °F 39.8 °F 42.8 °F 87% 29.92 in 6.2 mi SW 16.1 mph - N/A   Overcast
10:55 PM 48.2 °F - 42.8 °F 82% 29.92 in 6.2 mi SW 18.4 mph - N/A   Overcast
11:25 PM 46.4 °F 39.5 °F 42.8 °F 87% 29.92 in 6.2 mi SW 17.3 mph - N/A   Mostly Cloudy
11:55 PM 46.4 °F 39.0 °F 42.8 °F 87% 29.92 in 6.2 mi SW 19.6 mph - N/A   Overcast